User: anonymous   Login
Location: Caltech
(34.1382°N, 118.1253°W)
Time: 20:08:57
(UTC-07:00)
Language:

Cosmos 1733 Rocket - Orbit

View from above orbital plane
View from above orbital plane
View from above satellite
View from above satellite

Ground track
Ground track

The orbit data is extracted from the following two-line orbital elements,

1 16612U 86018B   18174.43367309 +.00000063 +00000-0 +46064-5 0  9999
2 16612 082.5170 308.1032 0017952 012.8879 017.2792 14.84198204625425
Epoch (UTC): 23 June 2018 10:24:29
Eccentricity: 0.0017952
inclination: 82.5170°
perigee height: 603 km
apogee height: 628 km
right ascension of ascending node: 308.1032°
argument of perigee: 12.8879°
revolutions per day: 14.84198204
mean anomaly at epoch: 17.2792°
orbit number at epoch: 62542

The dashed part of the orbit path shows where the satellite is in the earth's shadow,  

DLR